ELECTRON KICK STAGE R/B, 58901

Orbit data source: Space-Track

ELECTRON KICK STAGE R/B, 58901 is space debris in SSO originally from a launch on Wed, 31 Jan 2024 UTC launched from the Rocket Lab Launch Complex (RLLC). Debris objects in space refer to the collection of defunct objects orbiting the Earth. Examples of debris include non-operational satellites, rocket bodies, and fragments generated from explosions, collisions, or faulty payload assembly.

Loading next visibility...
Identifier
58901, 2024-022C
Orbit
SSO
Country
Flag of USUS
Related business
Manufacturer
Rocket Lab
Mission
Spacecraft
Bus & Motor
KICK STAGE, CURIE
Mass
~43 kg wet, ~43 kg dry
Launch date (UTC)
2024-01-31 (2 years ago)
Launch vehicle
Unknown
Launch site
Rocket Lab Launch Complex (RLLC)
Object type
Payload
Rocket body
Debris
Shape & HBR
Trunc Cone, 0.7 m
Radar Cross Section
0.760 m², Large (>1 m²)

Expand to show TLE details & history
Last TLE update: 12 hours ago

TLE from 12 hours ago
0 ELECTRON KICK STAGE R/B
1 58901U 24022C   26166.60535583  .00038811  00000-0  53273-3 0  9993
2 58901  97.4034  23.7906 0007194  98.6885 261.5185 15.57212033132513
Epoch: 2026-06-15T14:31Z
TLE epoch observation values (Epoch: 2026-06-15T14:31:42.743Z)
Latitude
-0.00008°
Longitude
-98.02683°
Altitude
399.593 km
Speed
7.67 km/s
True Right ascension
01h 35m 09s
True Declination
0° 00' 00"
Sunlit
Object was in daylight at epoch
Visualization orbit readout
Latitude
Unknown
Longitude
Unknown
Altitude
Unknown
Speed
Unknown
Apparent Right ascension
Unknown
Apparent Declination
Unknown
Sunlit
N/A
Visualization observer readout
Local Sidereal Time
12:59:38
Azimuth
Unknown
Elevation
Unknown
Doppler factor
Unknown
Orbital elements
Apogee altitude
397.517 km
Perigee altitude
387.776 km
Semi-major axis
6,770.783 km
Eccentricity
0.00072
Inclination
97.4034°
RAAN
23.7906°
Arg. of periapsis
98.6885°
True anomaly
261.43698°
Mean anomaly
261.5185°
Eccentric anomaly
261.47774°
Mean motion
3.89569 °/min
Orbital period
92.41 mins
BSTAR
0.00053273
Loading maneuver chart data...
Computing Atmospheric mass density...
Loading historical data...
Loading historical data...
Loading historical data...
Loading historical data...
Loading historical data...
Loading historical data...
Loading historical data...

Documentation

Showing up to 5 results
|